This is the latest recevied weather packets stored in our database for station/object F5OWB. If no packets are shown the sender has not sent any weather packets the latest 10 day(s).
| Time | Temp. | Humidity | Pressure | Rain* | Wind** | Luminosity | Snow |
|---|---|---|---|---|---|---|---|
| 1778245207 | 19.44° C | 54% | 1017.9 hPa | 0 mm | - | 752 W/m² | - |
| 1778245148 | 19.44° C | 54% | 1018 hPa | 0 mm | - | 752 W/m² | - |
| 1778245085 | 19.44° C | 52% | 1017.9 hPa | 0 mm | - | 756 W/m² | - |
| 1778245023 | 19.44° C | 51% | 1018 hPa | 0 mm | - | 752 W/m² | - |
| 1778244963 | 19.44° C | 52% | 1018 hPa | 0 mm | - | 756 W/m² | - |
| 1778244903 | 19.44° C | 50% | 1018 hPa | 0 mm | - | 758 W/m² | - |
| 1778244842 | 19.44° C | 53% | 1018 hPa | 0 mm | - | 758 W/m² | - |
| 1778244785 | 19.44° C | 51% | 1018 hPa | 0 mm | - | 759 W/m² | - |
| 1778244721 | 19.44° C | 54% | 1018 hPa | 0 mm | - | 759 W/m² | - |
| 1778244661 | 19.44° C | 52% | 1018 hPa | 0 mm | - | 761 W/m² | - |
| 1778244601 | 19.44° C | 52% | 1018 hPa | 0 mm | - | 761 W/m² | - |
| 1778244541 | 19.44° C | 52% | 1018 hPa | 0 mm | - | 765 W/m² | - |
| 1778244480 | 19.44° C | 51% | 1018 hPa | 0 mm | - | 763 W/m² | - |
| 1778244415 | 19.44° C | 54% | 1018 hPa | 0 mm | - | 763 W/m² | - |
| 1778244355 | 19.44° C | 52% | 1018 hPa | 0 mm | - | 765 W/m² | - |
| 1778244294 | 19.44° C | 53% | 1018 hPa | 0 mm | - | 766 W/m² | - |
| 1778244235 | 19.44° C | 51% | 1018.1 hPa | 0 mm | - | 768 W/m² | - |
| 1778244176 | 19.44° C | 55% | 1018 hPa | 0 mm | - | 766 W/m² | - |
| 1778244116 | 19.44° C | 55% | 1018 hPa | 0 mm | - | 768 W/m² | - |
| 1778244057 | 19.44° C | 51% | 1018 hPa | 0 mm | - | 770 W/m² | - |
| 1778244012 | 19.44° C | 53% | 1018.1 hPa | 0 mm | - | 772 W/m² | - |
| 1778243999 | 19.44° C | 50% | 1018.1 hPa | 0 mm | - | 770 W/m² | - |
| 1778243980 | 19.44° C | 51% | 1018.1 hPa | 0 mm | - | 772 W/m² | - |
| 1778243961 | 19.44° C | 51% | 1018.1 hPa | 0 mm | - | 772 W/m² | - |
| 1778243755 | 19.44° C | 50% | 1018.1 hPa | 0 mm | - | 772 W/m² | - |
* Rain latest hour (hover to see other rain measurements)
** Current wind speed in m/s (hover to see current wind gust speed)